Other Public Products
Issued by NWS Charleston, SC

Current Version | Previous Version | Text Only | Print | Product List | Glossary On
Versions: 1 2 3 4 5 6 7 8 9 10 11 12 13 14 15 16 17 18 19 20 21 22 23 24 25 26 27 28 29 30 31 32 33 34 35 36 37 38 39 40 41 42 43 44 45 46 47 48 49 50
000 FPUS82 KCHS 282227 OPUCHS TEST...KCHS/KSAV Gateway Observations...TEST National Weather Service Charleston SC 600 PM EDT TUE MAR 28 2017 NOTE: "fair" indicates few or no clouds below 12,000 feet with no significant weather and/or obstructions to visibility. SCZ050-WAZ558-NCZ071-TXZ119-213-PAZ071-DCZ001-FLZ074-172-MI076- NYZ176-178-MAZ016-IL014-TNZ027-NJZ106-GAZ044-MD014-282300- ...Gateway Observations for Charleston International... CITY SKY/WX TMP DP RH WIND PRES REMARKS Chas Airport PTSUNNY 76 60 57 S12 29.89S Seattle CLOUDY 51 44 77 S15G24 30.21S Charlotte PTSUNNY 79 51 37 N13 29.89S Dallas DFW PTSUNNY 81 67 62 SE16G22 29.67F Dallas Love PTSUNNY 81 65 58 SE18 29.69F Philladelphia CLOUDY 52 50 93 N10 29.87R Wash National PTSUNNY 72 54 53 NW13 29.84R Baltimore PTSUNNY 67 56 67 NW5 29.83R Miami MOSUNNY 79 64 60 SE8 29.98R Detroit CLOUDY 49 38 65 N10 30.11R Newark LGT RAIN 42 41 96 N14 29.89R FOG Laguardia CLOUDY 43 39 86 NE14 29.89R J F K CLOUDY 47 45 93 N7 29.89S FOG Boston Logan NOT AVBL Ft. Lauderdale MOSUNNY 79 64 60 E13 29.97S Chicago O`Hare PTSUNNY 44 37 76 E10 30.15R Chicago Midway PTSUNNY 45 38 76 NE12 30.15S Houston Bush MOSUNNY 81 68 64 SE23G30 29.78F Houston Hobby PTSUNNY 79 67 66 S22G30 29.78F Nashville PTSUNNY 70 52 52 N8 30.00S Atlanta PTSUNNY 78 57 48 NW10 29.94S $$ GAZ044-118-TXZ119-213-NCZ071-DCZ001-MDZ014-506-PAZ021-071-NJZ106- NYZ176-178-MAZ106-OHZ011-021-055-MIZ076-KYZ091-ILZ014-INZ047- MNZ060-ONZ431-282300- ...Gateway Observations for Savannah International... CITY SKY/WX TMP DP RH WIND PRES REMARKS Savannah Arpt CLOUDY 83 55 38 W13 29.91S Atlanta PTSUNNY 78 57 48 NW10 29.94S Charlotte PTSUNNY 79 51 37 N13 29.89S Dallas DFW PTSUNNY 81 67 62 SE16G22 29.67F Houston Bush MOSUNNY 81 68 64 SE23G30 29.78F Wash National PTSUNNY 72 54 53 NW13 29.84R Wash Dulles CLOUDY 68 54 60 NW6 29.85R Baltimore PTSUNNY 67 56 67 NW5 29.83R Philadelphia CLOUDY 52 50 93 N10 29.87R Newark LGT RAIN 42 41 96 N14 29.89R FOG Laguardia CLOUDY 43 39 86 NE14 29.89R J F K CLOUDY 47 45 93 N7 29.89S FOG Boston NOT AVBL Pittsburg PTSUNNY 56 48 74 NW16 29.98R Akron CLOUDY 47 40 76 N9 30.03R Cleveland CLOUDY 44 37 76 N10 30.10R Cincinnati CLOUDY 57 50 77 N9 30.04R Columbus SUNNY 57 47 70 N12 30.03R Detroit CLOUDY 49 38 65 N10 30.11R Chicago O`Hare PTSUNNY 44 37 76 E10 30.15R Minneapolis CLOUDY 62 28 27 SE5 30.12S Indianapolis CLOUDY 56 45 66 N10 30.07R Toronto Canada PTSUNNY 43 36 75 N17 30.05R $$

USA.gov is the U.S. government's official web portal to all federal, state and local government web resources and services.